• Join FlightAware (Why Join?)
  • Login
  • US Flag 
03:06AM EDT


 

Airport Tracker/Info


-or-


 

Live Flight TrackerFlight Track Log ✈ SWA1796 ✈ 02-Nov-2013 ✈ KHOU - KDAL

Flight Track Log - Related Links

Times and Time Zones

All times are in EDT time to prevent confusion due to time zone crossing. See the SWA1796 flight status page for this flight to view local times or setup timezone preferences in your user account.

Time Position Orientation Groundspeed Altitude Reporting Facility
EDT Latitude Longitude Course Direction KTS MPH feet Rate Location/Type
09:09PM 29.6633 -95.2953 335° Northwest 138 159 1,600  Level Houston Center
09:09PM 29.6675 -95.2936 19° North 153 176 1,700 2,580 Climbing Houston Center
09:10PM 29.7231 -95.2994 355° North 201 231 4,500 3,360 Climbing Houston Center
09:11PM 29.7933 -95.3147 349° North 249 287 8,600 3,180 Climbing Houston Center
09:12PM 29.8711 -95.3306 350° North 275 316 11,000 2,580 Climbing Houston Center
09:13PM 29.9694 -95.3542 348° North 355 409 13,900 2,820 Climbing Houston Center
09:14PM 30.0678 -95.3922 341° North 371 427 16,800 2,700 Climbing Houston Center
09:15PM 30.1686 -95.4308 342° North 381 438 19,500 2,400 Climbing Houston Center
09:16PM 30.2753 -95.4714 342° North 398 458 21,700 2,160 Climbing Houston Center
09:17PM 30.3858 -95.5139 342° North 415 478 23,900 1,980 Climbing Houston Center
09:18PM 30.5014 -95.5572 342° North 431 496 25,800 2,040 Climbing Houston Center
09:19PM 30.6200 -95.6028 342° North 446 513 28,100 2,400 Climbing Houston Center
09:20PM 30.7419 -95.6506 341° North 437 503 30,700 1,860 Climbing Houston Center
09:21PM 30.8539 -95.6936 342° North 425 489 32,000 600 Climbing Houston Center
09:22PM 30.9647 -95.7372 341° North 420 483 32,000  Level Houston Center
09:24PM 31.0772 -95.7803 342° North 422 486 32,000  Level Houston Center
09:25PM 31.1881 -95.8233 342° North 420 483 32,000  Level Houston Center
09:26PM 31.2983 -95.8658 342° North 416 479 32,000  Level Houston Center
09:27PM 31.4078 -95.9147 339° North 419 482 32,000 -900 Level Houston Center
09:28PM 31.5158 -95.9628 339° North 415 478 30,200 -2,460 Descending Houston Center
09:29PM 31.6264 -96.0097 340° North 420 483 27,100 -3,120 Descending Houston Center
09:29PM 31.7153 -96.0506 339° North 416 479 25,000 -2,880 Descending Fort Worth Center
09:30PM 31.8203 -96.0956 340° North 411 473 22,300 -2,700 Descending Fort Worth Center
09:31PM 31.9231 -96.1431 339° North 406 467 19,700 -2,400 Descending Fort Worth Center
09:32PM 32.0194 -96.1833 340° North 389 448 17,600 -2,400 Descending Fort Worth Center
09:33PM 32.1158 -96.2286 338° Northwest 374 430 15,000 -2,580 Descending Fort Worth Center
09:34PM 32.2122 -96.2692 340° North 367 422 12,500 -2,160 Descending Fort Worth Center
09:35PM 32.3025 -96.3097 339° North 362 417 10,700 -1,260 Descending Fort Worth Center
09:36PM 32.3800 -96.3458 339° North 315 362 10,000 -960 Descending Fort Worth Center
09:37PM 32.4431 -96.3917 328° Northwest 280 322 8,800 -1,380 Descending Fort Worth Center
09:38PM 32.4958 -96.4528 316° Northwest 264 304 7,300 -1,320 Descending Fort Worth Center
09:39PM 32.5483 -96.5139 316° Northwest 256 295 6,200 -1,440 Descending Fort Worth Center
09:40PM 32.5967 -96.5700 316° Northwest 250 288 4,500 -1,500 Descending Fort Worth Center
09:41PM 32.6472 -96.6289 316° Northwest 250 288 3,300 -1,080 Descending Fort Worth Center
09:42PM 32.6833 -96.6667 319° Northwest 245 282 2,600 -420 Descending Dallas / Fort Worth TRACON
09:43PM 32.7333 -96.7167 320° Northwest 203 234 2,600 -60 Level Dallas / Fort Worth TRACON
09:44PM 32.7667 -96.7667 308° West 170 196 2,500 -540 Descending Dallas / Fort Worth TRACON
09:45PM 32.8000 -96.8000 320° Northwest 144 166 1,600 -840 Descending Dallas / Fort Worth TRACON
09:46PM 32.8167 -96.8333 301° West 135 155 900 -720 Descending Dallas / Fort Worth TRACON
09:50PM 32.8333 -96.8500 140° Southeast  Level FlightAware Approximate